NINGXIA-1 8 (49020 NORAD) Tracking and Keplerian Element Data

This shows tracking and keplerian element data for the satellite.

Feedback or suggestion? Click here.




ElementValue
Catalog49020
NameNINGXIA-1 8
Epoch Orbit1108
Epoch Day269.13033282
Epoch Year2021
RAAN96.4991
Inclination44.9951
Eccentricity0.0008319
Argument of Perigee276.606
Mean Anonmoly83.389
Mean Motion14.080952
Decay Rate-0.00074559
L11 49020U 21064C 21269.13033282 -.00074559 00000-0 -43804-1 0 9992
L22 49020 44.9951 96.4991 0008319 276.6060 83.3890 14.08095200 11085

Live tracking and technical data element details for NINGXIA-1 8 (NORAD 49020). NINGXIA-1 8 can be tracked NOW for your location showing map with azimuth and elevation plus other details from your city location.

Track the satellite on the map from your city or location and see movement details for azimuth, elevation, latitude, longitude, range, height, and movement on the map or in text.







IsCatalogInMostPopularTable: catalog: 49020, numindb: 15
Update: records affected: 1



GetName: 49020 NINGXIA-1 8

Hit Count: updated at: Sun, 26 Sep 2021 16:37:48 GMT